Morgantown, WV

12:05 AM EDT on August 27, 2016 (GMT -0400)
Morgantown Municipal-Hart

Weather History for KMGW - March, 2014

Change the Weather History Date:

Wednesday, March 26, 2014

  Actual Average Record
Temperature  
Mean Temperature 24 °F 46 °F  
Max Temperature 30 °F 56 °F 81 °F (1967)
Min Temperature 18 °F 35 °F 14 °F (1955)
Degree Days  
Heating Degree Days 41 20  
Month to date heating degree days 767 619  
Since 1 July heating degree days 4893 4508  
Cooling Degree Days 0 0  
Month to date cooling degree days 0 0  
Year to date cooling degree days 0 0  
Moisture  
Dew Point 13 °F    
Average Humidity 60    
Maximum Humidity 84    
Minimum Humidity 35    
Precipitation  
Precipitation 0.02 in 0.12 in 1.34 in (2002)
Month to date precipitation 1.43 3.02  
Year to date precipitation 6.60 8.43  
Sea Level Pressure  
Sea Level Pressure 30.18 in    
Wind  
Wind Speed 6 mph (WNW)    
Max Wind Speed 15 mph    
Max Gust Speed 22 mph    
Visibility 6 miles    
Events Fog , Snow    
T = Trace of Precipitation, MM = Missing Value Source: NWS Daily Summary

Daily Weather History Graph

Daily Weather History Graph

Search for Another Location

Airport or City:

Trip Planner

Search our weather history database for the weather conditions in past years. The results will help you decide how hot, cold, wet, or windy it might be!

Date:

Astronomy

Mar. 26, 2014 Rise Set
Actual Time 7:13 AM EDT 7:37 PM EDT
Civil Twilight 6:46 AM EDT 8:04 PM EDT
Nautical Twilight 6:14 AM EDT 8:36 PM EDT
Astronomical Twilight 5:42 AM EDT 9:09 PM EDT
Moon 4:20 AM EDT (3/26) 3:15 PM EDT (3/26)
Length of Visible Light 13h 18m
Length of Day
12h 24m
Waning Crescent, 22% of the Moon is Illuminated
Mar 26
Waning Crescent
Mar 30
New
Apr 7
First Quarter
Apr 15
Full
Apr 22
Last Quarter

Hourly Weather History & Observations

Time (EDT) Temp. Windchill Dew Point Humidity Pressure Visibility Wind Dir Wind Speed Gust Speed Precip Events Conditions
12:53 AM 25.0 °F 18.1 °F 16.0 °F 69% 30.06 in 10.0 mi WNW 5.8 mph - N/A   Overcast
1:12 AM 25.0 °F 15.5 °F 17.1 °F 72% 30.03 in 2.5 mi WNW 9.2 mph - 0.00 in Snow Light Snow
1:20 AM 24.1 °F 17.0 °F 19.0 °F 81% 30.03 in 1.2 mi NW 5.8 mph - 0.00 in Snow Light Snow
1:33 AM 24.1 °F 17.0 °F 19.0 °F 81% 30.03 in 4.0 mi Variable 5.8 mph - 0.00 in Snow Light Snow
1:43 AM 24.1 °F 16.0 °F 17.1 °F 75% 30.03 in 10.0 mi NW 6.9 mph - 0.00 in   Overcast
1:53 AM 24.1 °F 18.2 °F 17.1 °F 75% 30.08 in 10.0 mi NW 4.6 mph - 0.00 in   Overcast
2:53 AM 23.0 °F 14.7 °F 16.0 °F 74% 30.08 in 5.0 mi Variable 6.9 mph - 0.00 in Snow Light Snow
3:02 AM 21.9 °F 12.5 °F 18.0 °F 85% 30.04 in 2.0 mi WNW 8.1 mph - 0.00 in Snow Light Snow
3:12 AM 21.9 °F 13.4 °F 18.0 °F 85% 30.04 in 5.0 mi West 6.9 mph - 0.00 in Snow Light Snow
3:24 AM 21.9 °F 11.7 °F 18.0 °F 85% 30.04 in 1.8 mi West 9.2 mph - 0.00 in Snow Light Snow
3:53 AM 21.0 °F 9.3 °F 18.0 °F 88% 30.09 in 2.5 mi West 11.5 mph 17.3 mph 0.00 in Snow Light Snow
4:01 AM 21.0 °F 8.6 °F 17.1 °F 85% 30.05 in 6.0 mi West 12.7 mph - 0.00 in   Overcast
4:20 AM 21.0 °F 10.6 °F 18.0 °F 88% 30.06 in 1.8 mi West 9.2 mph - 0.00 in Snow Light Snow
4:53 AM 21.0 °F 12.4 °F 19.0 °F 92% 30.11 in 1.0 mi WNW 6.9 mph - 0.00 in Snow Light Snow
5:08 AM 19.9 °F 9.3 °F 17.1 °F 89% 30.07 in 3.0 mi WNW 9.2 mph - 0.00 in Snow Light Snow
5:20 AM 19.9 °F 8.6 °F 15.1 °F 81% 30.07 in 2.5 mi WNW 10.4 mph - 0.00 in Snow Light Snow
5:27 AM 19.9 °F 9.3 °F 15.1 °F 81% 30.08 in 6.0 mi WNW 9.2 mph - 0.00 in   Haze
5:40 AM 19.9 °F 10.1 °F 12.9 °F 74% 30.08 in 10.0 mi NW 8.1 mph - 0.00 in   Overcast
5:53 AM 19.9 °F 11.1 °F 12.0 °F 71% 30.14 in 10.0 mi WNW 6.9 mph 18.4 mph 0.00 in   Overcast
6:53 AM 19.0 °F 9.0 °F 12.9 °F 77% 30.17 in 5.0 mi NW 8.1 mph - 0.00 in Snow Light Snow
7:18 AM 19.9 °F 9.3 °F 12.9 °F 74% 30.14 in 5.0 mi West 9.2 mph - 0.00 in   Haze
7:22 AM 19.9 °F 11.1 °F 12.9 °F 74% 30.14 in 2.5 mi WNW 6.9 mph - 0.00 in Snow Light Snow
7:31 AM 19.9 °F 9.3 °F 12.9 °F 74% 30.15 in 1.8 mi WNW 9.2 mph 17.3 mph 0.00 in Snow Light Snow
7:53 AM 19.0 °F 10.0 °F 15.1 °F 85% 30.22 in 0.5 mi NW 6.9 mph - 0.01 in Fog , Snow Light Snow
7:57 AM 19.0 °F 11.1 °F 15.1 °F 85% 30.17 in 0.2 mi NNW 5.8 mph - 0.00 in Fog , Snow Light Snow
8:14 AM 18.0 °F 9.8 °F 16.0 °F 92% 30.19 in 0.8 mi NNW 5.8 mph - 0.00 in Snow Light Snow
8:22 AM 18.0 °F 8.7 °F 15.1 °F 88% 30.20 in 1.5 mi NNW 6.9 mph - 0.00 in Snow Light Snow
8:29 AM 19.0 °F 10.0 °F 15.1 °F 85% 30.20 in 3.0 mi NW 6.9 mph - 0.01 in Snow Light Snow
8:37 AM 18.0 °F 4.8 °F 10.9 °F 74% 30.21 in 6.0 mi NNW 12.7 mph 20.7 mph 0.01 in   Haze
8:44 AM 18.0 °F 5.4 °F 10.0 °F 71% 30.21 in 10.0 mi NNW 11.5 mph 20.7 mph 0.01 in   Overcast
8:53 AM 18.0 °F 5.4 °F 9.0 °F 68% 30.27 in 10.0 mi NNW 11.5 mph 19.6 mph 0.01 in   Mostly Cloudy
9:53 AM 19.9 °F 10.1 °F 8.1 °F 60% 30.30 in 10.0 mi NNW 8.1 mph 19.6 mph N/A   Scattered Clouds
10:00 AM 19.9 °F 9.3 °F 8.1 °F 60% 30.24 in 10.0 mi NW 9.2 mph - N/A   Mostly Cloudy
10:07 AM 19.9 °F 9.3 °F 8.1 °F 60% 30.24 in 10.0 mi NNW 9.2 mph - N/A   Mostly Cloudy
10:53 AM 21.0 °F 11.4 °F 10.0 °F 63% 30.32 in 10.0 mi North 8.1 mph - N/A   Overcast
11:53 AM 21.9 °F 14.5 °F 8.1 °F 55% 30.32 in 10.0 mi Variable 5.8 mph - N/A   Mostly Cloudy
12:53 PM 23.0 °F 13.9 °F 6.1 °F 48% 30.32 in 10.0 mi West 8.1 mph 16.1 mph N/A   Mostly Cloudy
1:53 PM 25.0 °F 14.8 °F 6.1 °F 45% 30.32 in 10.0 mi WNW 10.4 mph 18.4 mph N/A   Overcast
2:53 PM 26.1 °F 16.8 °F 6.1 °F 43% 30.30 in 10.0 mi WSW 9.2 mph 17.3 mph N/A   Mostly Cloudy
3:53 PM 28.0 °F 18.1 °F 8.1 °F 43% 30.30 in 10.0 mi West 11.5 mph 17.3 mph N/A   Mostly Cloudy
4:53 PM 28.0 °F 20.0 °F 8.1 °F 43% 30.29 in 10.0 mi West 8.1 mph - N/A   Clear
5:53 PM 30.0 °F 24.1 °F 6.1 °F 36% 30.29 in 10.0 mi Variable 5.8 mph - N/A   Clear
6:53 PM 28.9 °F 21.9 °F 5.0 °F 36% 30.30 in 10.0 mi West 6.9 mph - N/A   Clear
7:53 PM 28.0 °F 22.8 °F 6.1 °F 39% 30.30 in 10.0 mi West 4.6 mph - N/A   Clear
8:53 PM 28.0 °F - 7.0 °F 41% 30.32 in 10.0 mi Calm Calm - N/A   Clear
9:53 PM 26.1 °F - 8.1 °F 47% 30.32 in 10.0 mi Calm Calm - N/A   Clear
10:53 PM 24.1 °F - 8.1 °F 51% 30.32 in 10.0 mi Calm Calm - N/A   Clear
11:53 PM 21.9 °F - 10.9 °F 63% 30.35 in 10.0 mi Calm Calm - N/A   Clear